Date String (YYYY-MM-DD hh:mm:ss) UTC,Instrument flags,absolute air pressure of the measurement (hPa),sample flow rate (lpm),inlet stack bypass flow (lpm),air temperature of the measurement (°C),ambient temperature measured by the external sensor (°C),aerosol sample conditioner tube jacket temperature (°C),OPC LED temperature (°C),internal box temperature (°C),relative humidity of the measurement (%),span deviation,mass concentration of particles derived from Lorenz-Mie calculation of OPC scattering (μg/m³),mass concentration of particles derived from Lorenz-Mie calculation of OPC scattering (μg/m³),mass concentration of particles derived from Lorenz-Mie calculation of OPC scattering (μg/m³)
DateTimeUTC,F1_M11,P_M11,Q1_M11,Q2_M11,T1_M11,T2_M11,T3_M11,T4_M11,T5_M11,U1_M11,ZSPAN_M11,X0_M11,X2_M11,X1_M11
2024-05-21 14:00:00,SystemResetWarning,0823.6,5.01,000.00,026.3,025.5,000.0,034.7,028.1,024.2,0000.0,0001.40,0001.06,0000.84
2024-05-21 14:01:00,SystemResetWarning,0823.5,4.99,000.00,026.3,025.5,000.0,034.7,028.1,023.7,0000.0,0001.44,0001.06,0000.82
2024-05-21 14:02:00,SystemResetWarning,0823.5,5.00,000.00,026.2,025.4,000.0,034.7,028.1,023.5,0000.0,0001.35,0001.01,0000.80
2024-05-21 14:03:00,SystemResetWarning,0823.5,5.01,000.00,026.2,025.4,000.0,034.7,028.0,023.8,0000.0,0001.33,0001.00,0000.78
2024-05-21 14:04:00,SystemResetWarning,0823.5,5.01,000.00,026.2,025.4,000.0,034.7,028.0,024.9,0000.0,0001.38,0001.02,0000.78
2024-05-21 14:05:00,SystemResetWarning,0823.6,4.99,000.00,026.2,025.4,000.0,034.7,028.0,024.9,0000.0,0001.34,0000.97,0000.77
2024-05-21 14:06:00,SystemResetWarning,0823.8,4.98,000.00,026.2,025.4,000.0,034.7,028.0,024.4,0000.0,0001.29,0000.94,0000.75
2024-05-21 14:07:00,SystemResetWarning,0823.8,5.01,000.00,026.2,025.4,000.0,034.6,028.0,023.3,0000.0,0001.38,0000.98,0000.76
2024-05-21 14:08:00,SystemResetWarning,0823.8,5.02,000.00,026.2,025.4,000.0,034.6,028.0,023.9,0000.0,0001.64,0001.03,0000.80
2024-05-21 14:09:00,SystemResetWarning,0823.8,4.98,000.00,026.2,025.4,000.0,034.6,028.0,024.2,0000.0,0001.72,0001.05,0000.83
2024-05-21 14:10:00,SystemResetWarning,0823.8,5.00,000.00,026.2,025.4,000.0,034.6,028.0,024.0,0000.0,0001.70,0001.07,0000.85
2024-05-21 14:11:00,SystemResetWarning,0823.8,5.00,000.00,026.2,025.4,000.0,034.6,028.0,023.6,0000.0,0001.70,0001.07,0000.85
2024-05-21 14:12:00,SystemResetWarning,0823.8,5.01,000.00,026.2,025.4,000.0,034.6,028.0,023.7,0000.0,0001.75,0001.09,0000.87
2024-05-21 14:13:00,SystemResetWarning,0823.7,5.00,000.00,026.2,025.4,000.0,034.6,028.0,024.1,0000.0,0001.77,0001.09,0000.86
2024-05-21 14:14:00,SystemResetWarning,0823.7,4.99,000.00,026.2,025.4,000.0,034.6,028.0,024.1,0000.0,0001.86,0001.12,0000.87
2024-05-21 14:15:00,SystemResetWarning,0823.7,4.99,000.00,026.2,025.4,000.0,034.6,028.0,023.2,0000.0,0002.09,0001.11,0000.87
2024-05-21 14:16:00,SystemResetWarning,0823.6,5.00,000.00,026.2,025.4,000.0,034.6,028.0,023.6,0000.0,0002.70,0001.13,0000.87
2024-05-21 14:17:00,SystemResetWarning,0823.6,5.01,000.00,026.2,025.4,000.0,034.6,028.0,023.1,0000.0,0002.89,0001.17,0000.87
2024-05-21 14:18:00,SystemResetWarning,0823.7,5.00,000.00,026.2,025.4,000.0,034.6,028.0,022.6,0000.0,0002.98,0001.16,0000.87
2024-05-21 14:19:00,SystemResetWarning,0823.7,5.01,000.00,026.2,025.4,000.0,034.6,028.0,023.4,0000.0,0002.76,0001.13,0000.86
2024-05-21 14:20:00,SystemResetWarning,0823.7,5.01,000.00,026.2,025.4,000.0,034.6,028.0,022.8,0000.0,0002.76,0001.14,0000.85
2024-05-21 14:21:00,SystemResetWarning,0823.8,4.99,000.00,026.2,025.4,000.0,034.6,028.0,023.4,0000.0,0002.81,0001.12,0000.83
2024-05-21 14:22:00,SystemResetWarning,0823.8,4.99,000.00,026.2,025.4,000.0,034.6,028.0,023.4,0000.0,0002.82,0001.11,0000.82
2024-05-21 14:23:00,SystemResetWarning,0823.8,5.00,000.00,026.2,025.4,000.0,034.6,028.0,023.5,0000.0,0002.71,0001.08,0000.82
2024-05-21 14:24:00,SystemResetWarning,0823.8,5.01,000.00,026.2,025.4,000.0,034.6,028.0,023.8,0000.0,0002.79,0001.12,0000.84
2024-05-21 14:25:00,SystemResetWarning,0823.8,5.01,000.00,026.2,025.4,000.0,034.6,028.0,023.1,0000.0,0002.78,0001.12,0000.85
2024-05-21 14:26:00,SystemResetWarning,0823.8,4.99,000.00,026.2,025.4,000.0,034.6,028.0,022.9,0000.0,0003.67,0001.15,0000.85
2024-05-21 14:27:00,SystemResetWarning,0823.8,4.99,000.00,026.2,025.4,000.0,034.6,028.0,023.5,0000.0,0003.20,0001.16,0000.86
2024-05-21 14:28:00,SystemResetWarning,0823.8,5.00,000.00,026.2,025.4,000.0,034.6,028.0,024.6,0000.0,0003.07,0001.20,0000.88
2024-05-21 14:29:00,SystemResetWarning,0823.8,5.01,000.00,026.2,025.4,000.0,034.6,028.0,024.8,0000.0,0002.95,0001.22,0000.90
2024-05-21 14:30:00,SystemResetWarning,0823.8,5.00,000.00,026.2,025.4,000.0,034.6,028.0,024.2,0000.0,0003.20,0001.31,0000.93
2024-05-21 14:31:00,SystemResetWarning,0823.8,5.00,000.00,026.2,025.5,000.0,034.6,028.0,024.0,0000.0,0003.26,0001.35,0000.95
2024-05-21 14:32:00,SystemResetWarning,0823.8,5.00,000.00,026.2,025.5,000.0,034.6,028.1,024.1,0000.0,0003.29,0001.38,0000.97
2024-05-21 14:33:00,SystemResetWarning,0823.8,4.99,000.00,026.2,025.5,000.0,034.6,028.0,024.1,0000.0,0003.33,0001.43,0001.00
2024-05-21 14:34:00,SystemResetWarning,0823.8,4.99,000.00,026.2,025.5,000.0,034.6,028.1,023.8,0000.0,0003.39,0001.46,0001.02
2024-05-21 14:35:00,SystemResetWarning,0823.8,5.00,000.00,026.3,025.5,000.0,034.6,028.1,024.2,0000.0,0003.40,0001.48,0001.03
2024-05-21 14:36:00,SystemResetWarning,0823.8,5.01,000.00,026.3,025.5,000.0,034.6,028.1,024.6,0000.0,0003.45,0001.51,0001.05
2024-05-21 14:37:00,SystemResetWarning,0823.7,5.01,000.00,026.3,025.6,000.0,034.6,028.1,023.7,0000.0,0002.50,0001.49,0001.07
2024-05-21 14:38:00,SystemResetWarning,0823.7,4.99,000.00,026.3,025.6,000.0,034.6,028.1,024.0,0000.0,0002.23,0001.47,0001.09
2024-05-21 14:39:00,SystemResetWarning,0823.6,5.01,000.00,026.3,025.6,000.0,034.6,028.1,024.0,0000.0,0002.21,0001.46,0001.11
2024-05-21 14:40:00,SystemResetWarning,0823.7,5.01,000.00,026.3,025.6,000.0,034.6,028.2,024.5,0000.0,0002.22,0001.47,0001.12
2024-05-21 14:41:00,SystemResetWarning,0823.7,4.99,000.00,026.3,025.6,000.0,034.6,028.2,024.2,0000.0,0002.12,0001.47,0001.13
2024-05-21 14:42:00,SystemResetWarning,0823.7,4.99,000.00,026.3,025.6,000.0,034.6,028.2,024.0,0000.0,0002.13,0001.47,0001.11
2024-05-21 14:43:00,SystemResetWarning,0823.8,5.01,000.00,026.3,025.6,000.0,034.6,028.2,024.3,0000.0,0002.22,0001.49,0001.11
2024-05-21 14:44:00,SystemResetWarning,0823.8,5.00,000.00,026.4,025.6,000.0,034.6,028.2,023.9,0000.0,0002.16,0001.45,0001.09
2024-05-21 14:45:00,SystemResetWarning,0823.9,5.01,000.00,026.4,025.6,000.0,034.6,028.2,024.0,0000.0,0002.19,0001.43,0001.07
2024-05-21 14:46:00,SystemResetWarning,0824.0,5.00,000.00,026.4,025.7,000.0,034.6,028.2,023.3,0000.0,0002.34,0001.47,0001.08
2024-05-21 14:47:00,SystemResetWarning,0824.0,4.99,000.00,026.4,025.7,000.0,034.6,028.2,023.5,0000.0,0002.43,0001.49,0001.07
2024-05-21 14:48:00,SystemResetWarning,0824.0,5.01,000.00,026.4,025.7,000.0,034.6,028.2,023.3,0000.0,0002.50,0001.50,0001.06
2024-05-21 14:49:00,SystemResetWarning,0824.0,5.01,000.00,026.4,025.7,000.0,034.6,028.2,023.4,0000.0,0002.56,0001.52,0001.05
2024-05-21 14:50:00,SystemResetWarning,0824.0,4.98,000.00,026.4,025.7,000.0,034.7,028.2,023.4,0000.0,0003.64,0001.51,0001.04
2024-05-21 14:51:00,SystemResetWarning,0824.0,4.99,000.00,026.4,025.7,000.0,034.7,028.2,023.7,0000.0,0004.30,0001.49,0001.03
2024-05-21 14:52:00,SystemResetWarning,0824.0,5.01,000.00,026.4,025.7,000.0,034.7,028.2,022.9,0000.0,0004.20,0001.45,0001.01
2024-05-21 14:53:00,SystemResetWarning,0824.0,5.01,000.00,026.4,025.7,000.0,034.7,028.2,022.9,0000.0,0004.13,0001.42,0001.03
2024-05-21 14:54:00,SystemResetWarning,0824.0,5.00,000.00,026.4,025.7,000.0,034.7,028.2,023.1,0000.0,0004.13,0001.44,0001.04
2024-05-21 14:55:00,SystemResetWarning,0824.0,5.00,000.00,026.4,025.8,000.0,034.7,028.3,024.0,0000.0,0004.19,0001.46,0001.06
2024-05-21 14:56:00,SystemResetWarning,0824.0,4.99,000.00,026.5,025.8,000.0,034.7,028.3,023.4,0000.0,0004.28,0001.51,0001.08
2024-05-21 14:57:00,SystemResetWarning,0824.0,4.99,000.00,026.5,025.8,000.0,034.7,028.3,023.3,0000.0,0004.22,0001.51,0001.09
2024-05-21 14:58:00,SystemResetWarning,0824.0,5.00,000.00,026.5,025.8,000.0,034.7,028.3,023.5,0000.0,0004.12,0001.52,0001.12
2024-05-21 14:59:00,SystemResetWarning,0824.0,5.01,000.00,026.5,025.8,000.0,034.7,028.3,023.8,0000.0,0004.10,0001.53,0001.15
